Low Moor, IA

1:30 AM CST on January 21, 2017 (GMT -0600)
Clinton

Weather History for KCWI - April, 2014

Change the Weather History Date:

Tuesday, April 8, 2014

  Actual Average Record
Temperature  
Mean Temperature 45 °F -  
Max Temperature 60 °F 57 °F 80 °F (1991)
Min Temperature 30 °F 37 °F 18 °F (1972)
Degree Days  
Heating Degree Days 20    
Moisture  
Dew Point 31 °F    
Average Humidity 60    
Maximum Humidity 87    
Minimum Humidity 29    
Precipitation  
Precipitation 0.00 in - - ()
Sea Level Pressure  
Sea Level Pressure 29.85 in    
Wind  
Wind Speed 10 mph (NW)    
Max Wind Speed 18 mph    
Max Gust Speed 22 mph    
Visibility 10 miles    
Events      
Averages and records for this station are not official NWS values.
T = Trace of Precipitation, MM = Missing Value Source: NWS Daily Summary

Daily Weather History Graph

Daily Weather History Graph

Search for Another Location

Airport or City:

Trip Planner

Search our weather history database for the weather conditions in past years. The results will help you decide how hot, cold, wet, or windy it might be!

Date:

Astronomy

Apr. 08, 2014 Rise Set
Actual Time 6:32 AM CDT 7:34 PM CDT
Civil Twilight 6:03 AM CDT 8:03 PM CDT
Nautical Twilight 5:30 AM CDT 8:37 PM CDT
Astronomical Twilight 4:54 AM CDT 9:12 PM CDT
Moon 1:23 PM CDT (4/8) 2:50 AM CDT (4/8)
Length of Visible Light 13h 59m
Length of Day
13h 02m
Waxing Gibbous, 63% of the Moon is Illuminated
Apr 8
Waxing Gibbous
Apr 15
Full
Apr 22
Last Quarter
Apr 29
New
May 6
First Quarter

Hourly Weather History & Observations

Time (CDT) Temp. Windchill Dew Point Humidity Pressure Visibility Wind Dir Wind Speed Gust Speed Precip Events Conditions
12:15 AM 39.2 °F 33.0 °F 33.8 °F 81% 29.74 in 10.0 mi NNW 9.2 mph - N/A   Clear
12:35 AM 37.4 °F 31.4 °F 33.8 °F 87% 29.74 in 10.0 mi NW 8.1 mph - N/A   Clear
12:55 AM 35.6 °F 28.6 °F 30.2 °F 81% 29.74 in 9.0 mi WNW 9.2 mph - N/A   Partly Cloudy
1:15 AM 35.6 °F 29.2 °F 32.0 °F 87% 29.74 in 8.0 mi WNW 8.1 mph - N/A   Partly Cloudy
1:35 AM 35.6 °F 28.6 °F 30.2 °F 81% 29.74 in 8.0 mi NW 9.2 mph - N/A   Clear
1:55 AM 37.4 °F 30.8 °F 33.8 °F 87% 29.74 in 10.0 mi NW 9.2 mph - N/A   Clear
2:15 AM 35.6 °F 29.9 °F 32.0 °F 87% 29.74 in 10.0 mi NW 6.9 mph - N/A   Clear
2:35 AM 33.8 °F 26.4 °F 30.2 °F 87% 29.74 in 10.0 mi WNW 9.2 mph - N/A   Clear
2:55 AM 37.4 °F 31.4 °F 33.8 °F 87% 29.74 in 10.0 mi NW 8.1 mph - N/A   Clear
3:15 AM 35.6 °F 29.2 °F 32.0 °F 87% 29.74 in 10.0 mi NW 8.1 mph - N/A   Scattered Clouds
3:35 AM 33.8 °F 27.0 °F 30.2 °F 87% 29.74 in 10.0 mi NW 8.1 mph - N/A   Partly Cloudy
3:55 AM 37.4 °F 30.3 °F 33.8 °F 87% 29.74 in 10.0 mi NW 10.4 mph - N/A   Clear
4:15 AM 35.6 °F 28.0 °F 32.0 °F 87% 29.75 in 10.0 mi NW 10.4 mph - N/A   Clear
4:35 AM 35.6 °F 28.0 °F 30.2 °F 81% 29.75 in 10.0 mi NW 10.4 mph - N/A   Clear
4:55 AM 35.6 °F 27.5 °F 30.2 °F 81% 29.75 in 10.0 mi NW 11.5 mph - N/A   Partly Cloudy
5:15 AM 37.4 °F 29.8 °F 33.8 °F 87% 29.76 in 10.0 mi NW 11.5 mph - N/A   Clear
5:35 AM 37.4 °F 30.3 °F 33.8 °F 87% 29.76 in 10.0 mi NW 10.4 mph - N/A   Clear
5:55 AM 35.6 °F 29.2 °F 30.2 °F 81% 29.77 in 10.0 mi NW 8.1 mph - N/A   Partly Cloudy
6:15 AM 33.8 °F 27.7 °F 28.4 °F 81% 29.77 in 10.0 mi NW 6.9 mph - N/A   Scattered Clouds
6:35 AM 30.2 °F 21.3 °F 26.6 °F 86% 29.79 in 9.0 mi WNW 10.4 mph - N/A   Clear
6:55 AM 32.0 °F 24.8 °F 28.4 °F 87% 29.78 in 10.0 mi NW 8.1 mph - N/A   Clear
7:15 AM 35.6 °F 28.0 °F 30.2 °F 81% 29.80 in 10.0 mi NW 10.4 mph - N/A   Clear
7:35 AM 37.4 °F 30.8 °F 33.8 °F 87% 29.80 in 10.0 mi NW 9.2 mph - N/A   Clear
7:55 AM 39.2 °F 33.6 °F 35.6 °F 87% 29.81 in 10.0 mi NW 8.1 mph - N/A   Clear
8:15 AM 42.8 °F 37.5 °F 35.6 °F 76% 29.82 in 10.0 mi NNW 9.2 mph - N/A   Clear
8:35 AM 42.8 °F 37.5 °F 37.4 °F 81% 29.82 in 10.0 mi NNW 9.2 mph - N/A   Clear
8:55 AM 44.6 °F 39.7 °F 37.4 °F 76% 29.83 in 10.0 mi North 9.2 mph - N/A   Clear
9:15 AM 46.4 °F 41.9 °F 37.4 °F 71% 29.83 in 10.0 mi North 9.2 mph - N/A   Clear
9:35 AM 48.2 °F - 37.4 °F 66% 29.84 in 10.0 mi North 9.2 mph - N/A   Clear
9:55 AM 50.0 °F - 35.6 °F 58% 29.84 in 10.0 mi North 13.8 mph - N/A   Clear
10:15 AM 51.8 °F - 35.6 °F 54% 29.85 in 10.0 mi NNW 10.4 mph 16.1 mph N/A   Clear
10:35 AM 53.6 °F - 35.6 °F 51% 29.85 in 10.0 mi NNW 9.2 mph - N/A   Clear
10:55 AM 53.6 °F - 35.6 °F 51% 29.85 in 10.0 mi NW 12.7 mph 16.1 mph N/A   Clear
11:15 AM 53.6 °F - 33.8 °F 47% 29.85 in 10.0 mi North 9.2 mph - N/A   Clear
11:35 AM 55.4 °F - 33.8 °F 44% 29.86 in 10.0 mi North 12.7 mph 18.4 mph N/A   Clear
11:55 AM 55.4 °F - 33.8 °F 44% 29.86 in 10.0 mi North 11.5 mph 18.4 mph N/A   Partly Cloudy
12:15 PM 57.2 °F - 33.8 °F 41% 29.86 in 10.0 mi North 15.0 mph 21.9 mph N/A   Partly Cloudy
12:35 PM 57.2 °F - 32.0 °F 38% 29.85 in 10.0 mi NNW 16.1 mph 20.7 mph N/A   Scattered Clouds
12:55 PM 57.2 °F - 30.2 °F 36% 29.85 in 10.0 mi North 12.7 mph 20.7 mph N/A   Partly Cloudy
1:15 PM 59.0 °F - 30.2 °F 34% 29.85 in 10.0 mi NNW 12.7 mph 19.6 mph N/A   Partly Cloudy
1:35 PM 57.2 °F - 26.6 °F 31% 29.85 in 10.0 mi NNW 9.2 mph 21.9 mph N/A   Scattered Clouds
1:55 PM 57.2 °F - 28.4 °F 33% 29.85 in 10.0 mi NNW 10.4 mph - N/A   Mostly Cloudy
2:15 PM 57.2 °F - 28.4 °F 33% 29.86 in 10.0 mi NNW 11.5 mph 17.3 mph N/A   Mostly Cloudy
2:35 PM 60.8 °F - 28.4 °F 29% 29.86 in 10.0 mi NW 11.5 mph - N/A   Mostly Cloudy
2:55 PM 59.0 °F - 28.4 °F 31% 29.85 in 10.0 mi NW 12.7 mph - N/A   Mostly Cloudy
3:15 PM 57.2 °F - 28.4 °F 33% 29.86 in 10.0 mi North 12.7 mph - N/A   Overcast
3:35 PM 57.2 °F - 28.4 °F 33% 29.86 in 10.0 mi North 15.0 mph - N/A   Overcast
3:55 PM 57.2 °F - 26.6 °F 31% 29.87 in 10.0 mi NNW 13.8 mph 17.3 mph N/A   Mostly Cloudy
4:15 PM 57.2 °F - 28.4 °F 33% 29.87 in 10.0 mi North 12.7 mph - N/A   Mostly Cloudy
4:35 PM 59.0 °F - 28.4 °F 31% 29.88 in 10.0 mi NNW 18.4 mph - N/A   Mostly Cloudy
4:55 PM 57.2 °F - 28.4 °F 33% 29.88 in 10.0 mi NNW 16.1 mph 20.7 mph N/A   Partly Cloudy
5:15 PM 55.4 °F - 28.4 °F 36% 29.88 in 10.0 mi NW 8.1 mph - N/A   Clear
5:35 PM 57.2 °F - 26.6 °F 31% 29.89 in 10.0 mi NW 12.7 mph 19.6 mph N/A   Mostly Cloudy
5:55 PM 59.0 °F - 28.4 °F 31% 29.90 in 10.0 mi NNW 15.0 mph 18.4 mph N/A   Scattered Clouds
6:15 PM 57.2 °F - 26.6 °F 31% 29.90 in 10.0 mi North 11.5 mph - N/A   Partly Cloudy
6:35 PM 57.2 °F - 26.6 °F 31% 29.91 in 10.0 mi NNW 12.7 mph - N/A   Clear
6:55 PM 55.4 °F - 28.4 °F 36% 29.92 in 10.0 mi NW 10.4 mph - N/A   Clear
7:15 PM 51.8 °F - 28.4 °F 41% 29.92 in 10.0 mi NW 11.5 mph - N/A   Clear
7:35 PM 48.2 °F - 28.4 °F 46% 29.93 in 10.0 mi NW 11.5 mph - N/A   Clear
7:55 PM 44.6 °F 39.2 °F 28.4 °F 53% 29.94 in 10.0 mi WNW 10.4 mph - N/A   Clear
8:15 PM 42.8 °F 37.0 °F 26.6 °F 53% 29.95 in 10.0 mi NW 10.4 mph - N/A   Clear
8:35 PM 42.8 °F 36.6 °F 28.4 °F 57% 29.95 in 10.0 mi NW 11.5 mph - N/A   Clear
8:55 PM 42.8 °F 36.6 °F 28.4 °F 57% 29.96 in 10.0 mi NW 11.5 mph - N/A   Clear
9:15 PM 39.2 °F 32.5 °F 26.6 °F 61% 29.96 in 10.0 mi WNW 10.4 mph - N/A   Clear
9:35 PM 37.4 °F 30.8 °F 26.6 °F 65% 29.98 in 10.0 mi West 9.2 mph - N/A   Clear
9:55 PM 37.4 °F 30.3 °F 28.4 °F 70% 29.98 in 10.0 mi NW 10.4 mph - N/A   Clear
10:15 PM 39.2 °F 33.6 °F 28.4 °F 65% 29.98 in 10.0 mi NW 8.1 mph - N/A   Clear
10:35 PM 37.4 °F 31.4 °F 28.4 °F 70% 29.99 in 10.0 mi NNW 8.1 mph - N/A   Clear
11:15 PM 41.0 °F 35.2 °F 28.4 °F 61% 30.00 in 10.0 mi NNW 9.2 mph - N/A   Clear
11:35 PM 39.2 °F 32.5 °F 28.4 °F 65% 30.00 in 10.0 mi NNW 10.4 mph - N/A   Clear
11:55 PM 37.4 °F 30.8 °F 28.4 °F 70% 30.00 in 10.0 mi NNW 9.2 mph - N/A   Clear